When you browse on this site, cookies collect data to enhance your experience and personalize the content and advertising you see.
Visit our Privacy Policy to learn more. By continuing to use the site, you agree to this use of cookies and data.
  • In Italy
  • List of Countries
  • For 7 days
  • Water Temperature
  • Satellite Maps
  • Weather Map
  • Weather Widgets
  • user-avatar
    Login

    Hourly Weather Sydney

    Today, 19 December, Wednesday

    Time Temperature Precipitation Wind Pressure Humidity
    00:00 +22°C° 0.2 mm 3 mps 760 mmHg 89%
    01:00 +21°C° 0.2 mm 4 mps 760 mmHg 89%
    02:00 +21°C° 0.1 mm 4 mps 760 mmHg 90%
    03:00 +21°C° 0.1 mm 3 mps 759 mmHg 90%
    04:00 +21°C° 0 mm 2 mps 759 mmHg 90%
    05:00 +21°C° 0.1 mm 2 mps 759 mmHg 90%
    06:00 +21°C° 0.1 mm 3 mps 760 mmHg 90%
    07:00 +21°C° 0.1 mm 3 mps 760 mmHg 90%
    08:00 +22°C° 0 mm 3 mps 760 mmHg 87%
    09:00 +24°C° 0 mm 3 mps 759 mmHg 85%
    10:00 +24°C° 0 mm 3 mps 759 mmHg 82%
    11:00 +25°C° 0 mm 3 mps 759 mmHg 80%
    12:00 +25°C° 0 mm 3 mps 759 mmHg 79%
    13:00 +26°C° 0 mm 4 mps 758 mmHg 77%
    14:00 +26°C° 0.5 mm 4 mps 758 mmHg 80%
    15:00 +26°C° 0.5 mm 4 mps 757 mmHg 82%
    16:00 +26°C° 0.5 mm 4 mps 757 mmHg 85%
    17:00 +25°C° 1.3 mm 4 mps 757 mmHg 88%
    18:00 +24°C° 1.3 mm 3 mps 757 mmHg 91%
    19:00 +24°C° 1.3 mm 3 mps 757 mmHg 95%
    20:00 +24°C° 0.7 mm 3 mps 757 mmHg 95%
    21:00 +24°C° 0.7 mm 3 mps 758 mmHg 96%
    22:00 +24°C° 0.7 mm 3 mps 758 mmHg 96%
    23:00 +23°C° 0 mm 2 mps 758 mmHg 97%

    Tomorrow, 20 December, Thursday

    Time Temperature Precipitation Wind Pressure Humidity
    00:00 +23°C° 0 mm 2 mps 757 mmHg 97%
    01:00 +23°C° 0 mm 1 mps 756 mmHg 97%
    02:00 +23°C° 0 mm 1 mps 756 mmHg 97%
    03:00 +23°C° 0 mm 1 mps 755 mmHg 97%
    04:00 +23°C° 0 mm 1 mps 755 mmHg 97%
    05:00 +24°C° 0 mm 1 mps 755 mmHg 94%
    06:00 +24°C° 0 mm 1 mps 755 mmHg 91%
    07:00 +25°C° 0 mm 1 mps 755 mmHg 88%
    08:00 +28°C° 0 mm 1 mps 755 mmHg 77%
    09:00 +30°C° 0 mm 1 mps 755 mmHg 66%
    10:00 +34°C° 0 mm 2 mps 754 mmHg 55%
    11:00 +35°C° 0 mm 3 mps 753 mmHg 50%
    12:00 +37°C° 0 mm 4 mps 752 mmHg 45%
    13:00 +40°C° 0 mm 5 mps 751 mmHg 40%
    14:00 +39°C° 0.2 mm 6 mps 750 mmHg 43%
    15:00 +38°C° 0.2 mm 6 mps 749 mmHg 46%
    16:00 +36°C° 0.2 mm 7 mps 748 mmHg 49%
    17:00 +35°C° 0.1 mm 7 mps 748 mmHg 52%
    18:00 +34°C° 0.1 mm 7 mps 748 mmHg 54%
    19:00 +33°C° 0.1 mm 8 mps 748 mmHg 57%
    20:00 +31°C° 0.2 mm 8 mps 748 mmHg 66%
    21:00 +28°C° 0.2 mm 8 mps 749 mmHg 76%
    22:00 +26°C° 0.2 mm 8 mps 750 mmHg 85%
    23:00 +24°C° 0.1 mm 7 mps 750 mmHg 84%

    Day after tomorrow, 21 December, Friday

    Time Temperature Precipitation Wind Pressure Humidity
    00:00 +24°C° 0.1 mm 7 mps 751 mmHg 84%
    01:00 +24°C° 0.1 mm 6 mps 751 mmHg 83%
    02:00 +23°C° 0 mm 7 mps 751 mmHg 82%
    03:00 +22°C° 0 mm 7 mps 751 mmHg 80%
    04:00 +22°C° 0 mm 8 mps 751 mmHg 79%
    05:00 +22°C° 0 mm 7 mps 752 mmHg 77%
    06:00 +22°C° 0 mm 7 mps 752 mmHg 75%
    07:00 +22°C° 0 mm 7 mps 753 mmHg 72%
    08:00 +23°C° 0 mm 7 mps 753 mmHg 67%
    09:00 +26°C° 0 mm 7 mps 753 mmHg 62%
    10:00 +27°C° 0 mm 7 mps 754 mmHg 57%
    11:00 +27°C° 0 mm 7 mps 753 mmHg 57%
    12:00 +27°C° 0 mm 7 mps 753 mmHg 57%
    13:00 +27°C° 0 mm 7 mps 753 mmHg 57%
    14:00 +26°C° 0 mm 7 mps 753 mmHg 58%
    15:00 +26°C° 0 mm 6 mps 753 mmHg 59%
    16:00 +24°C° 0 mm 6 mps 752 mmHg 60%
    17:00 +23°C° 0 mm 6 mps 753 mmHg 64%
    18:00 +22°C° 0 mm 5 mps 753 mmHg 68%
    19:00 +21°C° 0 mm 5 mps 754 mmHg 71%
    20:00 +21°C° 0 mm 4 mps 754 mmHg 73%
    21:00 +21°C° 0 mm 4 mps 755 mmHg 74%
    22:00 +20°C° 0 mm 4 mps 755 mmHg 76%
    23:00 +20°C° 0 mm 4 mps 755 mmHg 77%

    22 December, Saturday

    Time Temperature Precipitation Wind Pressure Humidity
    00:00 +20°C° 0 mm 3 mps 754 mmHg 78%
    01:00 +19°C° 0 mm 3 mps 754 mmHg 79%
    02:00 +19°C° 0 mm 4 mps 754 mmHg 79%
    03:00 +19°C° 0 mm 4 mps 754 mmHg 80%
    04:00 +19°C° 0 mm 5 mps 755 mmHg 80%
    05:00 +19°C° 0 mm 5 mps 755 mmHg 78%
    06:00 +20°C° 0 mm 6 mps 756 mmHg 76%
    07:00 +20°C° 0 mm 6 mps 756 mmHg 74%
    08:00 +20°C° 0.1 mm 6 mps 757 mmHg 72%
    09:00 +21°C° 0.1 mm 7 mps 757 mmHg 70%
    10:00 +21°C° 0.1 mm 7 mps 757 mmHg 68%
    11:00 +22°C° 0.1 mm 8 mps 757 mmHg 62%
    12:00 +23°C° 0.1 mm 8 mps 757 mmHg 56%
    13:00 +24°C° 0.1 mm 8 mps 757 mmHg 51%
    14:00 +24°C° 0.1 mm 8 mps 757 mmHg 52%
    15:00 +23°C° 0.1 mm 8 mps 758 mmHg 52%
    16:00 +22°C° 0.1 mm 8 mps 758 mmHg 53%
    17:00 +21°C° 0 mm 8 mps 759 mmHg 57%
    18:00 +20°C° 0 mm 7 mps 760 mmHg 62%
    19:00 +19°C° 0 mm 6 mps 760 mmHg 66%
    20:00 +19°C° 0 mm 6 mps 761 mmHg 69%
    21:00 +17°C° 0 mm 6 mps 761 mmHg 73%
    22:00 +16°C° 0 mm 6 mps 762 mmHg 76%
    23:00 +16°C° 0 mm 6 mps 762 mmHg 78%

    23 December, Sunday

    Time Temperature Precipitation Wind Pressure Humidity
    00:00 +16°C° 0 mm 6 mps 762 mmHg 79%
    01:00 +15°C° 0 mm 6 mps 762 mmHg 80%
    02:00 +15°C° 0 mm 6 mps 762 mmHg 81%
    03:00 +14°C° 0 mm 6 mps 762 mmHg 82%
    04:00 +14°C° 0 mm 6 mps 762 mmHg 82%
    05:00 +15°C° 0 mm 6 mps 763 mmHg 77%
    06:00 +16°C° 0 mm 6 mps 764 mmHg 71%
    07:00 +17°C° 0 mm 6 mps 764 mmHg 65%
    08:00 +19°C° 0.1 mm 5 mps 764 mmHg 62%
    09:00 +20°C° 0.1 mm 5 mps 764 mmHg 59%
    10:00 +21°C° 0.1 mm 5 mps 764 mmHg 55%
    11:00 +22°C° 0 mm 5 mps 764 mmHg 52%
    12:00 +23°C° 0 mm 5 mps 764 mmHg 48%
    13:00 +26°C° 0 mm 5 mps 764 mmHg 44%
    14:00 +25°C° 0 mm 5 mps 763 mmHg 45%
    15:00 +25°C° 0 mm 5 mps 763 mmHg 46%
    16:00 +25°C° 0 mm 5 mps 763 mmHg 47%
    17:00 +23°C° 0 mm 4 mps 764 mmHg 53%
    18:00 +21°C° 0 mm 4 mps 764 mmHg 59%
    19:00 +19°C° 0 mm 3 mps 765 mmHg 65%
    20:00 +18°C° 0 mm 2 mps 765 mmHg 69%
    21:00 +17°C° 0 mm 2 mps 765 mmHg 74%
    22:00 +18°C° 0 mm 1 mps 766 mmHg 79%
    23:00 +16°C° 0 mm 1 mps 766 mmHg 81%

    24 December, Monday

    Time Temperature Precipitation Wind Pressure Humidity
    00:00 +16°C° 0 mm 1 mps 765 mmHg 83%
    01:00 +16°C° 0 mm 1 mps 765 mmHg 84%
    02:00 +15°C° 0 mm 1 mps 765 mmHg 85%
    03:00 +15°C° 0 mm 1 mps 765 mmHg 87%
    04:00 +15°C° 0 mm 2 mps 765 mmHg 88%
    05:00 +16°C° 0 mm 2 mps 765 mmHg 80%
    06:00 +18°C° 0 mm 2 mps 766 mmHg 73%
    07:00 +20°C° 0 mm 2 mps 766 mmHg 66%
    08:00 +23°C° 0 mm 2 mps 766 mmHg 58%
    09:00 +25°C° 0 mm 2 mps 766 mmHg 50%
    10:00 +27°C° 0 mm 2 mps 765 mmHg 42%
    11:00 +28°C° 0 mm 3 mps 765 mmHg 39%
    12:00 +29°C° 0 mm 3 mps 764 mmHg 37%
    13:00 +30°C° 0 mm 4 mps 764 mmHg 34%
    14:00 +30°C° 0 mm 5 mps 764 mmHg 37%
    15:00 +29°C° 0 mm 5 mps 763 mmHg 40%
    16:00 +29°C° 0 mm 6 mps 763 mmHg 43%
    17:00 +27°C° 0 mm 6 mps 763 mmHg 50%
    18:00 +24°C° 0 mm 6 mps 763 mmHg 57%
    19:00 +22°C° 0 mm 6 mps 764 mmHg 64%
    20:00 +21°C° 0 mm 6 mps 764 mmHg 70%
    21:00 +21°C° 0 mm 5 mps 764 mmHg 75%
    22:00 +20°C° 0 mm 5 mps 764 mmHg 80%
    23:00 +19°C° 0 mm 5 mps 764 mmHg 82%
    Show more